Lamoni, IA

12:12 PM CDT on July 22, 2017 (GMT -0500)
Lamoni Municipal

Weather History for KLWD - February, 2013

Change the Weather History Date:

Wednesday, February 6, 2013

  Actual Average Record
Temperature  
Mean Temperature 38 °F 26 °F  
Max Temperature 49 °F 35 °F 64 °F (2009)
Min Temperature 26 °F 17 °F -12 °F (2014)
Degree Days  
Heating Degree Days 27 39  
Month to date heating degree days 232 237  
Since 1 July heating degree days 3605 3929  
Cooling Degree Days 0 0  
Month to date cooling degree days 0 0  
Year to date cooling degree days 0 0  
Moisture  
Dew Point 30 °F    
Average Humidity 74    
Maximum Humidity 92    
Minimum Humidity 56    
Precipitation  
Precipitation 0.04 in 0.05 in 0.47 in (2005)
Month to date precipitation 0.09 0.27  
Sea Level Pressure  
Sea Level Pressure 30.03 in    
Wind  
Wind Speed 9 mph (SSE)    
Max Wind Speed 16 mph    
Max Gust Speed 22 mph    
Visibility 10 miles    
Events Rain    
T = Trace of Precipitation, MM = Missing Value Source: NWS Daily Summary

Daily Weather History Graph

Daily Weather History Graph

Search for Another Location

Airport or City:

Trip Planner

Search our weather history database for the weather conditions in past years. The results will help you decide how hot, cold, wet, or windy it might be!

Date:

Astronomy

Feb. 06, 2013 Rise Set
Actual Time 7:19 AM CST 5:40 PM CST
Civil Twilight 6:51 AM CST 6:08 PM CST
Nautical Twilight 6:18 AM CST 6:41 PM CST
Astronomical Twilight 5:47 AM CST 7:12 PM CST
Moon 4:04 AM CST (2/6) 1:58 PM CST (2/6)
Length of Visible Light 11h 17m
Length of Day
10h 20m
Waning Crescent, 17% of the Moon is Illuminated
Feb 6
Waning Crescent
Feb 10
New
Feb 17
First Quarter
Feb 25
Full
Mar 4
Last Quarter

Hourly Weather History & Observations

Time (CST) Temp. Windchill Dew Point Humidity Pressure Visibility Wind Dir Wind Speed Gust Speed Precip Events Conditions
12:53 AM 28.0 °F - 24.1 °F 85% 30.13 in 10.0 mi Calm Calm - N/A   Clear
1:53 AM 27.0 °F 23.0 °F 25.0 °F 92% 30.13 in 8.0 mi SSW 3.5 mph - N/A   Clear
2:53 AM 28.9 °F 22.8 °F 27.0 °F 92% 30.13 in 9.0 mi South 5.8 mph - N/A   Clear
3:53 AM 28.9 °F 23.9 °F 26.1 °F 89% 30.10 in 8.0 mi SE 4.6 mph - N/A   Clear
4:53 AM 28.9 °F 22.8 °F 27.0 °F 92% 30.12 in 10.0 mi SSE 5.8 mph - N/A   Clear
5:53 AM 30.0 °F 23.2 °F 27.0 °F 88% 30.10 in 9.0 mi SE 6.9 mph - N/A   Clear
6:53 AM 28.9 °F 25.2 °F 27.0 °F 92% 30.12 in 8.0 mi SSE 3.5 mph - N/A   Clear
7:53 AM 30.0 °F 22.4 °F 27.0 °F 88% 30.12 in 7.0 mi SSE 8.1 mph - N/A   Clear
8:53 AM 32.0 °F 23.0 °F 28.9 °F 88% 30.12 in 9.0 mi SSE 11.5 mph - N/A   Scattered Clouds
9:53 AM 36.0 °F 29.6 °F 30.0 °F 79% 30.11 in 10.0 mi SSE 8.1 mph 17.3 mph N/A   Scattered Clouds
10:53 AM 39.0 °F 32.3 °F 30.9 °F 73% 30.11 in 10.0 mi South 10.4 mph 18.4 mph N/A   Clear
11:53 AM 43.0 °F 36.8 °F 33.1 °F 68% 30.08 in 10.0 mi SSE 11.5 mph 16.1 mph N/A   Clear
12:53 PM 43.0 °F 36.4 °F 30.9 °F 62% 30.03 in 10.0 mi SSE 12.7 mph - N/A   Clear
1:53 PM 45.0 °F 38.5 °F 32.0 °F 60% 30.00 in 10.0 mi SSE 13.8 mph 19.6 mph N/A   Clear
2:53 PM 46.0 °F 40.2 °F 32.0 °F 58% 29.97 in 10.0 mi SE 12.7 mph - N/A   Clear
3:53 PM 48.9 °F - 34.0 °F 56% 29.95 in 10.0 mi SSE 12.7 mph - N/A   Clear
4:53 PM 46.9 °F - 33.1 °F 59% 29.94 in 10.0 mi SE 8.1 mph - N/A   Scattered Clouds
5:53 PM 46.0 °F 43.1 °F 33.1 °F 61% 29.94 in 10.0 mi SE 5.8 mph - N/A   Scattered Clouds
6:53 PM 46.9 °F - 33.1 °F 59% 29.95 in 10.0 mi SE 6.9 mph - N/A   Overcast
7:53 PM 46.9 °F - 33.1 °F 59% 29.93 in 10.0 mi SE 10.4 mph - N/A   Overcast
8:53 PM 46.9 °F - 33.1 °F 59% 29.93 in 10.0 mi SE 9.2 mph - N/A   Overcast
9:53 PM 46.9 °F - 32.0 °F 56% 29.93 in 10.0 mi SSE 9.2 mph - N/A   Overcast
10:53 PM 45.0 °F 39.3 °F 35.1 °F 68% 29.92 in 10.0 mi SSE 11.5 mph - 0.00 in Rain Light Rain
11:53 PM 42.1 °F 35.7 °F 37.0 °F 82% 29.94 in 10.0 mi NW 11.5 mph - 0.04 in   Overcast